User: anonymous   Login
Location: Unspecified
(0.0000°N, 0.0000°E)
Time: 10:17:52
(UTC+00:00)
Language:

ETS 8 - Orbit

View from above orbital plane
View from above orbital plane
View from above satellite
View from above satellite

Ground track
Ground track

The orbit data is extracted from the following two-line orbital elements,

1 29656U 06059A   17147.03990974 -.00000276 +00000-0 +00000-0 0  9995
2 29656 005.5651 059.3700 0002060 248.6837 111.0504 00.99010089038281
Epoch (UTC): 27 May 2017 00:57:28
Eccentricity: 0.0002060
inclination: 5.5651°
perigee height: 36135 km
apogee height: 36152 km
right ascension of ascending node: 59.3700°
argument of perigee: 248.6837°
revolutions per day: 0.99010089
mean anomaly at epoch: 111.0504°
orbit number at epoch: 3828

The dashed part of the orbit path shows where the satellite is in the earth's shadow,  

DLR